Location: Northcutt
(34.7304°N, 84.4305°W)
Time: 16:47:39
(UTC+00:00)

SR - Pass Details

Date: 07 October 2022
Orbit: 577 x 874 km, 66.7° (Epoch: 05 December)

Event Time Altitude Azimuth Distance (km) Brightness Sun altitude
Rises 12:00:39 0° 311° (NW) 3,198 ? 4.0°
Reaches altitude 10° 12:04:16 10° 287° (WNW) 2,196 ? 4.7°
Maximum altitude 12:06:40 14° 258° (WSW) 1,912 ? 5.2°
Drops below altitude 10° 12:08:58 10° 228° (SW) 2,095 ? 5.6°
Sets 12:12:17 0° 202° (SSW) 2,937 ? 6.3°
